Regional Weather Roundup
Issued by NWS Grand Forks, ND

Home | Current Version | Previous Version | Text Only | Print | Product List | Glossary Off
Versions: 1 2 3 4 5 6 7 8 9 10 11 12 13 14 15 16 17 18 19 20 21 22 23 24 25 26 27 28 29 30 31 32 33 34 35 36 37 38 39 40 41 42 43 44 45 46 47 48 49 50

000
ASUS43 KFGF 041531
RWRFGF
PRAIRIE TO PINES  WEATHER ROUNDUP
NATIONAL WEATHER SERVICE EASTERN NORTH DAKOTA/GRAND FORKS ND
1000 AM CDT MON MAY 04 2015

 **SATELLITE DATA USED TO AUGMENT SKY COVER AT AUTOMATED STATIONS**
 *****  WEATHER ACROSS EASTERN NORTH DAKOTA  *****

CITY           SKY/WX    TMP DP  RH WIND       PRES   REMARKS
GRAND FORKS    MOSUNNY   56  38  50 SE5       30.22S
GRAND FRKS AFB SUNNY     57  38  49 S8        30.22R
GRAND FRKS NWS   N/A     59 N/A N/A S3          N/A
DEVILS LAKE    SUNNY     55  37  50 SW9       30.21S
FARGO          MOSUNNY   59  35  40 CALM      30.21R
WAHPETON ARPT  MOSUNNY   57  32  38 N3        30.22R
$$

 ***** WEATHER ACROSS CENTRAL AND WESTERN NORTH DAKOTA  *****

CITY           SKY/WX    TMP DP  RH WIND       PRES   REMARKS
BISMARCK       PTSUNNY   51  30  44 CALM      30.24R
MINOT          SUNNY     58  29  33 S13G18    30.19R
JAMESTOWN      PTSUNNY   55  32  41 CALM      30.21S
MINOT AFB      SUNNY     58  32  37 SW12      30.18S
GARRISON         N/A     55  31  39 S9        30.20R
WILLISTON      MOSUNNY   56  28  34 S10       30.17S
DICKINSON      MOSUNNY   56  27  32 S20       30.18S
HETTINGER      CLOUDY    51  28  41 S14       30.22R
$$

 *****  OTHER AIRPORT OBSERVATIONS IN OUR AREA  *****

CITY           SKY/WX    TMP DP  RH WIND       PRES   REMARKS
WALHALLA       FAIR      59  32  36 SW7       30.21R
GRAFTON AIRPOR FAIR      57  39  51 S9        30.23S
VALLEY CITY AR FAIR      57  36  44 CALM      30.22S
CANDO          FAIR      57  32  38 S10       30.21S
CAVALIER APRT  FAIR      57  37  47 SW9       30.21S
GWINNER        SUNNY     55  32  41 NE3       30.23R
SHEYENNE NWR     N/A     59  36  42 CALM      29.95S
ROLLA          NOT AVBL
 ***** THE ABOVE OBSERVATIONS ARE NON NWS ARE NOT QUALITY
       CONTROLLED AND MAY MIS-REPORT RAIN FOR SNOW...
$$

  *****  WEATHER ACROSS NORTHERN MINNESOTA  *****

CITY           SKY/WX    TMP DP  RH WIND       PRES   REMARKS
FLAG ISLAND    SUNNY     46  36  66 N5        30.21R
WARROAD        SUNNY     52  36  54 CALM      30.22S
ROSEAU         SUNNY     54  36  50 CALM      30.22S
HALLOCK        SUNNY     57  36  44 SW7       30.21S
THF RVR FALLS  SUNNY     57  28  33 CALM      30.23S
BAUDETTE       SUNNY     52  34  50 NW6       30.21R
WASKISH        SUNNY     54  36  50 W3        30.22S
CROOKSTON      SUNNY     59  36  41 CALM      30.23S
$$
  *****  WEATHER ACROSS CENTRAL AND WEST MINNESOTA  *****

CITY           SKY/WX    TMP DP  RH WIND       PRES   REMARKS
FOSSTON        MOSUNNY   57  34  41 CALM      30.23R
BEMIDJI        SUNNY     55  30  38 NW5       30.23R
PARK RAPIDS    PTSUNNY   56  37  49 CALM      30.21R
ELBOW LAKE     FAIR      62  34  36 E5        30.20R
WADENA         MOSUNNY   57  37  47 CALM      30.21R
DETROIT LAKES  MOSUNNY   55  36  47 S3        30.23R
MOORHEAD       MOSUNNY   57  34  41 CALM      30.22S
FERGUS FALLS   MOSUNNY   59  36  41 CALM      30.22R
MORRIS MN      MOSUNNY   64  34  32 E6        30.19R
STAPLES        MOSUNNY   57  36  44 N5        30.21S
$$
  *****  WEATHER ELSEWHERE ACROSS MINNESOTA  *****

CITY           SKY/WX    TMP DP  RH WIND       PRES   REMARKS
DULUTH         SUNNY     57  31  37 NW16G23   30.16R
INTRNTL FALLS  SUNNY     53  32  44 N7        30.19R
ELY            SUNNY     54  32  43 N8G16     30.17R
CLOQUET        SUNNY     57  28  33 NW14G20   30.18R
WHEATON        MOSUNNY   57  36  44 CALM      30.22R
BRAINERD       MOSUNNY   58  37  45 N6        30.21R
HIBBING        SUNNY     56  34  43 NW10      30.18R
ALEXANDRIA     SUNNY     59  33  37 NE8       30.21R
SAINT CLOUD    SUNNY     62  33  33 N10       30.17S
MINNEAPOLIS    MOSUNNY   62  35  36 N12       30.16R
$$

  *****  WEATHER ACROSS SOUTH DAKOTA  *****

CITY           SKY/WX    TMP DP  RH WIND       PRES   REMARKS
SIOUX FALLS    PTSUNNY   63  33  32 E14       30.16R
BROOKINGS      SUNNY     61  30  31 NE10      30.18S
WATERTOWN      PTSUNNY   61  30  31 E9        30.18S
HURON          PTSUNNY   59  33  37 NW3       30.20R
SISSETON         N/A     61  31  32 NE3       30.19S
ABERDEEN       PTSUNNY   59  31  34 N3        30.20S
MITCHELL       SUNNY     65  30  27 NE12      30.18S
PIERRE         CLOUDY    55  27  34 N6        30.21R
MOBRIDGE       CLOUDY    50  36  58 NW6       30.22R
RAPID CITY     LGT RAIN  46  40  79 NE3       30.22S
$$

  *****  SOME WEATHER IN NEARBY STATES *****

CITY           SKY/WX    TMP DP  RH WIND       PRES   REMARKS
GLASGOW MT     SUNNY     53  26  35 SE18      30.05F
GREAT FALLS MT SUNNY     51  33  50 SW3       29.94F
CHEYENNE WY    CLOUDY    47  38  71 S10       30.14F
SCOTTSBLUFF NE CLOUDY    49  42  77 E8        30.16R
OMAHA NE       CLOUDY    63  50  62 NW9       30.08R
DES MOINES IA  CLOUDY    68  57  68 NE15      30.05R
DAVENPORT IA   PTSUNNY   68  60  75 SE6       30.09R
CHICAGO IL     CLOUDY    66  58  75 W9        30.07S
EAU CLAIRE WI  SUNNY     60  36  40 N13       30.13R
LA CROSSE WI   SUNNY     66  39  37 N12       30.11R
$$

  *****  SOME NATIONAL WEATHER *****

CITY           SKY/WX    TMP DP  RH WIND       PRES   REMARKS
LA GUARDIA NY  MOSUNNY   74  48  39 NE5       30.21S
RALEIGH NC     MOSUNNY   73  57  57 SW6       30.32S
ATLANTA GA     MOSUNNY   75  51  43 S5        30.31R
NEW ORLEANS LA PTSUNNY   77  63  61 E9G16     30.17R
OKLAHOMA CITY  PTSUNNY   72  62  71 S18G24    30.06R
ALBUQUERQUE NM MOSUNNY   62  42  47 W10       30.05S
SALT LAKE CITY MOSUNNY   63  44  50 SE7       29.96S
LOS ANGELES CA PTSUNNY   58  51  78 SW6       29.96R
BOISE ID       MOSUNNY   60  35  39 CALM      29.89S
SEATTLE WA     MOSUNNY   48  44  84 S13       29.91R
$$

*** WEATHER ACROSS MANITOBA...SASKATCHEWAN AND ONTARIO ***
                ***ONTARIO***

CITY           SKY/WX    TMP DP  RH WIND       PRES   REMARKS
GERALDTON      PTSUNNY   50  37  62 NW14G20   30.04R
THUNDER BAY    MOSUNNY   57  36  44 NW14G23   30.10R
SIOUX LOOKOUT  MOSUNNY   46  39  76 W9        30.16R
TORONTO        LGT RAIN  73  48  40 SW17G24   30.03S
BIG TROUT LK   LGT SNOW  34  34 100 SW5       29.98F
PICKLE LAKE    PTSUNNY   45  32  61 NW8G23    30.07R
DRYDEN         SUNNY     48  37  66 W8        30.18R
KENORA         MOSUNNY   48  36  61 VRB3      30.20R
$$
                *** MANITOBA***

CITY           SKY/WX    TMP DP  RH WIND       PRES   REMARKS
BRANDON        MOSUNNY   54  37  54 SW3       30.20R
DAUPHIN        SUNNY     50  36  57 VRB5      30.19R
ISLAND LAKE    PTSUNNY   37  32  81 W14G21    30.06R
PILOT MOUND      N/A     55  34  44 SW10        N/A
THE PAS        PTSUNNY   41  25  52 N6        30.17R
THOMPSON       FLURRIES  30  25  80 NW18      30.06R WCI  18
WINNIPEG       MOSUNNY   55  37  50 W10       30.20S
LYNN LAKE      FLURRIES  30  21  69 W13G22    30.07R WCI  20
CHURCHILL      FLURRIES  23  16  74 NW17      29.90  WCI   9
GILLAM         CLOUDY    30  21  69 W10       30.00R WCI  21
$$
                ***SASKATCHEWAN***

CITY           SKY/WX    TMP DP  RH WIND       PRES   REMARKS
ESTEVAN        MOSUNNY   52  32  46 S5        30.18F
KINDERSLEY     MOSUNNY   52  30  43 SE15      30.05F
LLOYDMINSTER   CLOUDY    43  36  75 VRB2      30.06S
PRINCE ALBERT  MOSUNNY   46  27  46 SE12G18   30.14
REGINA         MOSUNNY   50  34  53 SE6       30.16S
YORKTON        SUNNY     50  36  57 VRB3      30.16S
N. BATTLEFORD  PTSUNNY   48  32  53 SE7       30.10F
LA RONGE       PTSUNNY   36  21  55 N9        30.19S
SASKATOON      MOSUNNY   48  32  53 S3        30.13S
SWIFT CURRENT  SUNNY     54  25  32 SE18      30.06F
$$
NOTE: THESE ARE AUTOMATED STATIONS WITH LIMITED QUALITY CONTROL
      "FAIR" INDICATES FEW OR NO CLOUDS BELOW 12,000 FEET WITH NO
      SIGNIFICANT WEATHER AND/OR OBSTRUCTIONS TO VISIBILITY.
      SKY/WX - SKY CONDITION AND SIGNIFICANT WEATHER.
      TMP - AIR TEMPERATURE.    DP   - DEWPOINT TEMPERATURE.
      RH  - RELATIVE HUMIDITY.  PRES - PRESSURE.
      HX  - HEAT INDEX.         WCI  - WIND CHILL INDEX.
$


USA.gov is the U.S. government's official web portal to all federal, state and local government web resources and services.